TimeMDT,TemperatureF,Dew PointF,Humidity,Sea Level PressureIn,VisibilityMPH,Wind Direction,Wind SpeedMPH,Gust SpeedMPH,PrecipitationIn,Events,Conditions,WindDirDegrees,DateUTC
12:53 AM,60.1,51.1,72,29.95,10.0,ENE,11.5,-,N/A,,Clear,60,2013-09-13 06:53:00
1:53 AM,57.9,51.1,78,29.92,10.0,ENE,11.5,-,N/A,,Clear,70,2013-09-13 07:53:00
2:53 AM,57.0,50.0,77,29.91,10.0,NE,10.4,-,N/A,,Clear,50,2013-09-13 08:53:00
3:53 AM,55.0,48.9,80,29.90,10.0,ENE,8.1,23.0,N/A,,Clear,60,2013-09-13 09:53:00
4:53 AM,54.0,48.9,83,29.89,10.0,ENE,3.5,-,N/A,,Clear,70,2013-09-13 10:53:00
5:53 AM,51.1,48.0,89,29.90,10.0,NNW,3.5,-,N/A,,Clear,330,2013-09-13 11:53:00
6:53 AM,52.0,48.0,86,29.88,10.0,SE,4.6,-,N/A,,Clear,130,2013-09-13 12:53:00
7:53 AM,52.0,48.9,89,29.90,10.0,Calm,Calm,-,N/A,,Clear,0,2013-09-13 13:53:00
8:53 AM,57.0,50.0,77,29.88,10.0,Calm,Calm,-,N/A,,Clear,0,2013-09-13 14:53:00
9:53 AM,62.1,52.0,70,29.87,10.0,Calm,Calm,-,N/A,,Clear,0,2013-09-13 15:53:00
10:53 AM,70.0,53.1,55,29.84,10.0,Calm,Calm,-,N/A,,Clear,0,2013-09-13 16:53:00
11:53 AM,75.0,54.0,48,29.82,10.0,NW,3.5,-,N/A,,Clear,310,2013-09-13 17:53:00
12:53 PM,79.0,53.1,40,29.80,10.0,NNW,5.8,-,N/A,,Clear,340,2013-09-13 18:53:00
1:53 PM,82.9,52.0,34,29.78,10.0,ENE,3.5,-,N/A,,Clear,60,2013-09-13 19:53:00
2:53 PM,82.9,51.1,33,29.76,10.0,NE,5.8,-,N/A,,Clear,40,2013-09-13 20:53:00
3:53 PM,82.9,51.1,33,29.75,10.0,East,4.6,-,N/A,,Clear,80,2013-09-13 21:53:00
4:53 PM,82.9,51.1,33,29.74,10.0,NNE,3.5,-,N/A,,Clear,20,2013-09-13 22:53:00
5:53 PM,81.0,57.0,44,29.75,10.0,Calm,Calm,-,N/A,,Clear,0,2013-09-13 23:53:00
6:53 PM,78.1,57.9,50,29.74,10.0,ENE,4.6,-,N/A,,Clear,70,2013-09-14 00:53:00
7:53 PM,73.9,57.9,57,29.75,10.0,NE,4.6,-,N/A,,Clear,50,2013-09-14 01:53:00
8:53 PM,66.9,59.0,76,29.77,10.0,Calm,Calm,-,N/A,,Clear,0,2013-09-14 02:53:00
9:53 PM,66.0,57.0,73,29.78,10.0,Calm,Calm,-,N/A,,Clear,0,2013-09-14 03:53:00
10:53 PM,64.9,55.9,73,29.77,10.0,Calm,Calm,-,N/A,,Clear,0,2013-09-14 04:53:00
11:53 PM,60.1,55.9,86,29.79,10.0,West,3.5,-,N/A,,Clear,260,2013-09-14 05:53:00